This is the latest recevied weather packets stored in our database for station/object DO7CRZ-10. If no packets are shown the sender has not sent any weather packets the latest 10 day(s).
| Time | Temp. | Humidity | Pressure | Rain* | Wind** | Luminosity | Snow |
|---|---|---|---|---|---|---|---|
| 1777690021 | 9.44° C | 55% | 1024 hPa | - | - | - | - |
| 1777688275 | 8.89° C | 54% | 1024 hPa | - | - | - | - |
| 1777686529 | 9.44° C | 52% | 1024 hPa | - | - | - | - |
| 1777684784 | 10° C | 44% | 1024 hPa | - | - | - | - |
| 1777683038 | 10.56° C | 44% | 1024 hPa | - | - | - | - |
| 1777681292 | 10.56° C | 43% | 1024 hPa | - | - | - | - |
| 1777679546 | 11.11° C | 44% | 1024 hPa | - | - | - | - |
| 1777677800 | 12.78° C | 40% | 1024 hPa | - | - | - | - |
| 1777676055 | 12.22° C | 42% | 1024 hPa | - | - | - | - |
| 1777674309 | 13.33° C | 39% | 1024 hPa | - | - | - | - |
| 1777672563 | 15° C | 38% | 1024 hPa | - | - | - | - |
| 1777670817 | 15° C | 38% | 1024 hPa | - | - | - | - |
| 1777669071 | 15.56° C | 38% | 1024 hPa | - | - | - | - |
| 1777667325 | 16.11° C | 37% | 1024 hPa | - | - | - | - |
| 1777665579 | 17.22° C | 36% | 1024 hPa | - | - | - | - |
| 1777663834 | 17.78° C | 36% | 1024 hPa | - | - | - | - |
| 1777662088 | 18.33° C | 36% | 1024 hPa | - | - | - | - |
| 1777660342 | 20° C | 35% | 1024 hPa | - | - | - | - |
| 1777658596 | 22.22° C | 35% | 1024 hPa | - | - | - | - |
| 1777656850 | 23.33° C | 34% | 1024 hPa | - | - | - | - |
| 1777655104 | 23.89° C | 32% | 1024 hPa | - | - | - | - |
| 1777653358 | 24.44° C | 32% | 1024 hPa | - | - | - | - |
| 1777651613 | 25° C | 30% | 1024 hPa | - | - | - | - |
| 1777649867 | 25.56° C | 31% | 1024 hPa | - | - | - | - |
| 1777648121 | 25° C | 29% | 1025 hPa | - | - | - | - |
* Rain since midnight (hover to see other rain measurements)
** Current wind speed in m/s (hover to see current wind gust speed)